Location: Caltech
(34.1382°N, 118.1253°W)
Time: 06:39:13
(UTC-07:00)

Meteor 2-4 Rocket - Visible Passes

Search period start: 01 May 2016 00:00
Search period end: 11 May 2016 00:00
Orbit: 800 x 908 km, 81.2° (Epoch: 30 April)

Date Brightness Start Highest point End Pass type
(mag) Time Alt. Az. Time Alt. Az. Time Alt. Az.
01 May 5.8 00:44:40 23° N 00:44:40 23° N 00:46:45 10° N visible
02 May 5.7 00:33:33 24° N 00:33:33 24° N 00:35:48 10° N visible
03 May 5.6 00:22:26 26° N 00:22:26 26° N 00:24:50 10° N visible
04 May 5.5 00:11:18 27° N 00:11:18 27° N 00:13:51 10° N visible
05 May 5.4 00:00:09 29° N 00:00:09 29° N 00:02:53 10° N visible
05 May 5.3 23:48:58 31° N 23:48:58 31° N 23:51:54 10° N visible
06 May 5.1 23:37:46 34° N 23:37:46 34° N 23:40:55 10° N visible
07 May 4.9 23:26:33 37° N 23:26:33 37° N 23:29:56 10° N visible
08 May 4.8 23:15:19 40° NNE 23:15:19 40° NNE 23:18:56 10° N visible
09 May 6.3 00:57:22 11° WNW 00:57:22 11° WNW 00:58:18 10° NW visible
09 May 4.6 23:04:03 44° NNE 23:04:03 44° NNE 23:07:57 10° NNE visible
10 May 6.2 00:46:06 12° WNW 00:46:06 12° WNW 00:47:52 10° NW visible
10 May 4.4 22:52:45 48° NNE 22:52:45 48° NNE 22:56:56 10° NNE visible
